KJ7AZ-3 Weather Reports


time (UTC)temp
C
wind
direction
speed
KPH
gust
KPH
rain 1hr
cm
rain 24hr
cm
rain mn
cm
humidity
%
barometer
mb
20240420160826 8 110 12.9 17.7 0.00 0.00 0.00
20240420155327 7 103 12.9 6.4 0.00 0.00 0.00
20240420150830 6 135 16.1 14.5 0.00 0.00 0.00
20240420145332 6 155 11.3 16.1 0.00 0.00 0.00
20240420143833 5 131 17.7 16.1 0.00 0.00 0.00
20240420142334 6 117 14.5 22.5 0.00 0.00 0.00
20240420140835 5 153 17.7 19.3 0.00 0.00 0.00
20240420135336 5 104 12.9 11.3 0.00 0.00 0.00
20240420133838 5 128 12.9 14.5 0.00 0.00 0.00
20240420132339 5 127 12.9 11.3 0.00 0.00 0.00
20240420130840 5 114 11.3 14.5 0.00 0.00 0.00
20240420125342 5 134 11.3 12.9 0.00 0.00 0.00
20240420123843 5 97 11.3 14.5 0.00 0.00 0.00
20240420122344 5 136 16.1 20.9 0.00 0.00 0.00
20240420120845 5 114 16.1 24.1 0.00 0.00 0.00
20240420115347 6 139 16.1 14.5 0.00 0.00 0.00
20240420113848 6 121 11.3 12.9 0.00 0.00 0.00
20240420112348 6 132 9.7 16.1 0.00 0.00 0.00
20240420110850 7 84 14.5 12.9 0.00 0.00 0.00
20240420105351 7 132 12.9 11.3 0.00 0.00 0.00
20240420103852 7 115 14.5 12.9 0.00 0.00 0.00
20240420102353 7 143 16.1 22.5 0.00 0.00 0.00
20240420100854 7 124 16.1 17.7 0.00 0.00 0.00
20240420095355 7 127 14.5 6.4 0.00 0.00 0.00
20240420082400 7 129 9.7 9.7 0.00 0.00 0.00
20240420080901 7 91 9.7 12.9 0.00 0.00 0.00
20240420075400 7 127 9.7 12.9 0.00 0.00 0.00
20240420073902 7 129 8.0 6.4 0.00 0.00 0.00
20240420072403 8 148 11.3 11.3 0.00 0.00 0.00
20240420070904 8 143 3.2 4.8 0.00 0.00 0.00
20240420065404 8 93 4.8 4.8 0.00 0.00 0.00
20240420063905 8 165 1.6 6.4 0.00 0.00 0.00
20240420062407 8 169 3.2 3.2 0.00 0.00 0.00
20240420060908 8 150 0.0 6.4 0.00 0.00 0.00
20240420055409 9 98 1.6 1.6 0.00 0.00 0.00
20240420053910 10 170 3.2 4.8 0.00 0.00 0.00
20240420052411 10 103 3.2 4.8 0.00 0.00 0.00
20240420050912 10 96 4.8 3.2 0.00 0.00 0.00
20240420045413 10 145 4.8 0.0 0.00 0.00 0.00
20240420043914 10 90 4.8 8.0 0.00 0.00 0.00
20240420042414 10 93 3.2 6.4 0.00 0.00 0.00
20240420040916 11 121 1.6 3.2 0.00 0.00 0.00
20240420035417 11 153 1.6 4.8 0.00 0.00 0.00
20240420033918 11 153 4.8 3.2 0.00 0.00 0.00
20240420032419 12 150 4.8 3.2 0.00 0.00 0.00
20240420030920 12 127 8.0 4.8 0.00 0.00 0.00
20240420025421 12 132 4.8 4.8 0.00 0.00 0.00
20240420022421 13 103 6.4 4.8 0.00 0.00 0.00
20240420020922 13 134 6.4 8.0 0.00 0.00 0.00
20240420015423 14 122 11.3 11.3 0.00 0.00 0.00
20240420013925 15 118 9.7 8.0 0.00 0.00 0.00
20240420012425 15 115 9.7 8.0 0.00 0.00 0.00
20240420010926 17 153 12.9 22.5 0.00 0.00 0.00
20240420005427 18 110 11.3 11.3 0.00 0.00 0.00
20240420003927 20 191 4.8 3.2 0.00 0.00 0.00
20240420002428 21 304 1.6 0.0 0.00 0.00 0.00
20240419235428 25 105 4.8 3.2 0.00 0.00 0.00
20240419233929 25 316 11.3 11.3 0.00 0.00 0.00
20240419232429 26 287 12.9 9.7 0.00 0.00 0.00
20240419230929 25 228 3.2 11.3 0.00 0.00 0.00
20240419225430 25 335 6.4 6.4 0.00 0.00 0.00
20240419223930 25 301 11.3 8.0 0.00 0.00 0.00
20240419222430 25 304 14.5 16.1 0.00 0.00 0.00
20240419220930 25 318 9.7 6.4 0.00 0.00 0.00
20240419215431 23 330 8.0 3.2 0.00 0.00 0.00
20240419213931 23 305 12.9 20.9 0.00 0.00 0.00
20240419212431 23 297 14.5 9.7 0.00 0.00 0.00
20240419210932 24 300 11.3 17.7 0.00 0.00 0.00
20240419205432 25 298 14.5 9.7 0.00 0.00 0.00
20240419203932 25 301 9.7 11.3 0.00 0.00 0.00
20240419202433 24 319 9.7 6.4 0.00 0.00 0.00
20240419200933 23 307 9.7 9.7 0.00 0.00 0.00
20240419195434 24 267 6.4 9.7 0.00 0.00 0.00
20240419193934 22 215 1.6 8.0 0.00 0.00 0.00
20240419192435 22 70 4.8 0.0 0.00 0.00 0.00
20240419190935 20 124 3.2 0.0 0.00 0.00 0.00
20240419185436 20 207 1.6 3.2 0.00 0.00 0.00
20240419183937 18 127 4.8 4.8 0.00 0.00 0.00
20240419182438 18 86 1.6 1.6 0.00 0.00 0.00
20240419180939 17 122 6.4 3.2 0.00 0.00 0.00
20240419175439 16 134 11.3 1.6 0.00 0.00 0.00
20240419173940 15 138 11.3 3.2 0.00 0.00 0.00
20240419172441 15 162 9.7 9.7 0.00 0.00 0.00
20240419170942 13 143 11.3 8.0 0.00 0.00 0.00
20240419165443 12 156 9.7 11.3 0.00 0.00 0.00
20240419163944 12 100 11.3 9.7 0.00 0.00 0.00
20240419162446 12 101 14.5 12.9 0.00 0.00 0.00